Regional Weather Roundup
Issued by NWS

Home | Current Version | Previous Version | Graphics & Text | Print | Product List | Glossary On
Versions: 1 2 3 4 5 6 7 8 9 10 11 12 13 14 15 16 17 18 19 20 21 22 23 24 25 26 27 28 29 30 31 32 33 34 35 36 37 38 39 40 41 42 43 44 45 46 47 48 49 50
000
ASUS43 KDTX 292201
RWRMI
MICHIGAN HOURLY REGIONAL WEATHER ROUNDUP
NATIONAL WEATHER SERVICE DETROIT/PONTIAC MI
600 PM EDT SAT APR 29 2017

NOTE: "FAIR" INDICATES FEW OR NO CLOUDS BELOW 12,000 FEET WITH NO
SIGNIFICANT WEATHER AND/OR OBSTRUCTION TO VISIBILITY.

MIZ047>049-052>055-059>063-066>070-074>076-081>083-292300-
SOUTHEAST LOWER MICHIGAN

CITY           SKY/WX    TMP DP  RH WIND       PRES   REMARKS
ADRIAN         CLOUDY    46  42  86 E13       30.18F
ALMA           CLOUDY    51  35  53 E10       30.20R
ANN ARBOR      CLOUDY    50  38  63 NE8       30.20R
BAD AXE        CLOUDY    42  31  66 NE10      30.24S
CARO           CLOUDY    48  33  56 NE7       30.20F
DETROIT CITY   CLOUDY    45  35  68 E9        30.23R
DETROIT        CLOUDY    49  34  56 NE13      30.22R
FLINT          CLOUDY    51  34  52 E14       30.18S
GROSSE ILE     CLOUDY    45  34  66 NE10G20   30.21S
HILLSDALE      CLOUDY    46  41  81 E9        30.14F
HOWELL         CLOUDY    51  36  56 E7        30.21R

CITY           SKY/WX    TMP DP  RH WIND       PRES   REMARKS
JACKSON        CLOUDY    52  40  63 E10       30.16S
LAMBERTVILLE   CLOUDY    46  40  79 NE6       30.19S
LANSING        LGT RAIN  50  40  68 NE7       30.21R
LAPEER         PTSUNNY   48  33  54 E7G20     30.21R
MASON          LGT RAIN  50  41  71 N3        30.21R
MONROE         CLOUDY    46  38  74 NE7       30.20R
MT. CLEMENS    CLOUDY    46  32  59 NE7       30.23R
PONTIAC        LGT RAIN  49  35  58 NE10      30.21R
PORT HOPE        N/A     42  33  70 N16       30.23F
PORT HURON     CLOUDY    41  30  65 NE23      30.15F
TRI CITIES     CLOUDY    50  35  56 NE15      30.19F
MIDLAND        FAIR      49  35  60 E12       30.20F
TROY           CLOUDY    48  31  52 E7        30.25R
SAGINAW HB     CLOUDY    50  30  46 NE15      30.18F
$$
MIZ043>046-050>051-056>058-064>065-071>073-077>080-292300-
SOUTHWEST LOWER MICHIGAN

CITY           SKY/WX    TMP DP  RH WIND       PRES   REMARKS
BATTLE CREEK   CLOUDY    49  45  86 NE10      30.14F
BENTON HARBOR  LGT RAIN  50  46  86 VRB6      30.12F
BIG RAPIDS     CLOUDY    51  31  46 NE8       30.17S
COLDWATER      CLOUDY    51  45  79 E9        30.13F
FREMONT        CLOUDY    52  27  37 NE12      30.15S
HOLLAND        LGT RAIN  50  43  77 E9        30.16S
GRAND RAPIDS   LGT RAIN  50  41  71 E8        30.18R
IONIA          LGT RAIN  50  38  63 E13G18    30.21R
KALAMAZOO      CLOUDY    50  44  80 E5        30.15F
LUDINGTON      CLOUDY    46  35  64 N10       30.18F
MARSHALL       CLOUDY    52  40  64 E6        30.15F
MOUNT PLEASANT CLOUDY    52  34  50 NE8       30.17F
MUSKEGON       LGT RAIN  53  37  54 NE8       30.17R
SOUTH HAVEN    DRIZZLE   48  45  91 NE7       30.14S
$$
MIZ016>042-292300-
NORTHERN LOWER MICHIGAN

CITY           SKY/WX    TMP DP  RH WIND       PRES   REMARKS
ALPENA         MOSUNNY   50  29  44 N7        30.26S
BEAVER ISLAND  MOSUNNY   49  22  35 N7        30.30R
BELLAIRE       CLOUDY    48  28  45 N6        30.26S
CADILLAC       CLOUDY    46  31  54 N10       30.19F
CHARLEVOIX     CLOUDY    43  31  62 NW9       30.30S
FRANKFORT      CLOUDY    45  29  53 N7        30.25F
GAYLORD        CLOUDY    51  24  34 N7        30.23S
GRAYLING       CLOUDY    51  28  40 NE13      30.23S
HARBOR SPRINGS CLOUDY    50  27  41 N9        30.26S
HOUGHTON LAKE  CLOUDY    52  28  39 NE8       30.21S
MANISTEE       CLOUDY    47  28  47 NE15G24   30.20F
OSCODA         CLOUDY    48  27  43 NE18G25   30.24R
PELLSTON       CLOUDY    50  26  39 N10       30.27S
ROGERS CITY    MOSUNNY   47  29  49 N8        30.28R
TRAVERSE CITY  CLOUDY    46  28  49 N9        30.25S
$$
MIZ007>008-015-292300-
EASTERN UPPER MICHIGAN

CITY           SKY/WX    TMP DP  RH WIND       PRES   REMARKS
KINROSS        CLOUDY    44  25  47 N16       30.29R
MACKINAC ISLAN PTSUNNY   47  29  49 N10       30.27S
NEWBERRY       CLOUDY    44  24  44 N9G18     30.31S
S. S. MARIE    SUNNY     45  26  47 NW16G23   30.29R
MUNISING         N/A     38  31  76 N9        30.37R WCI  31
$$
MIZ004>006-011>014-085-292300-
CENTRAL UPPER MICHIGAN

CITY           SKY/WX    TMP DP  RH WIND       PRES   REMARKS
MANISTIQUE     CLOUDY    47  26  43 N16G22    30.30S
ESCANABA       PTSUNNY   49  23  36 N8G17     30.31S
MENOMINEE      CLOUDY    46  28  49 E12       30.30S
SAWYER-GWINN   SUNNY     41  19  42 N13       30.35R
$$
MIZ001>003-009>011-084-292300-
WESTERN UPPER MICHIGAN

CITY           SKY/WX    TMP DP  RH WIND       PRES   REMARKS
IRON MOUNTAIN  CLOUDY    50  17  27 NE9       30.29S
HOUGHTON       CLOUDY    44  24  45 N12       30.37R
COPPER HARBOR    N/A     39  29  67 N8        30.40R WCI  33
IRONWOOD       CLOUDY    40  23  50 N7G16     30.37S
$$

ABBREVIATIONS USED IN REMARKS
   TC - TEMPERATURE IN CELSIUS
  WCI - WIND CHILL INDEX
   HX - HEAT INDEX
  VSB - VISIBILITY





USA.gov is the U.S. government's official web portal to all federal, state and local government web resources and services.